#timestamp,LO_Frequency,Hit,StdDev 
1509264015.6,286047001.3,N
1509264035.4,286047002.2,N
1509264055.2,286047000.2,N
1509264075.1,286047004.2,N
1509264076.0,286047004.2,N
1509264095.8,286047000.1,N
1509264115.6,286047012.0,Y
1509264135.5,286047006.2,P
1509264155.3,286047001.2,N
1509264175.1,286047000.8,N
1509264195.9,286046998.5,N
1509264215.7,286046999.9,N
1509264235.5,286047000.5,N
1509264255.4,286047002.6,N
1509264275.2,286047003.9,N
1509264295.0,286046998.1,N
1509264295.9,286046998.1,N
1509264315.8,286046998.1,N
1509264335.6,286047002.6,N
1509264355.4,286047003.3,N
1509264375.3,286047004.9,N
1509264395.1,286047008.4,Y
1509264415.9,286047006.1,P
1509264435.7,286047009.6,P
1509264455.5,286047010.0,N
1509264475.4,286047006.1,N
1509264495.2,286047007.7,N
1509264515.0,286047012.1,Y
1509264515.9,286047012.1,P
1509264535.8,286047006.6,N
1509264555.6,286047006.1,N
1509264575.5,286047007.1,N
1509264595.3,286047006.8,Y
1509264615.1,286046997.1,P
1509264635.9,286046996.3,N
1509264655.7,286046996.1,N
1509264675.5,286047001.1,N
1509264695.4,286047000.8,N
1509264715.2,286046995.0,N
1509264735.0,286046991.8,N
1509264735.9,286046991.8,N
1509264755.8,286046989.1,N
1509264775.6,286046985.6,N
1509264795.4,286046987.6,N
1509264815.3,286046989.5,N
1509264835.1,286046991.6,N
1509264836.0,286046991.6,N
1509264855.8,286046988.9,N
1509264875.7,286046988.7,N
1509264895.5,286046987.4,N
1509264915.3,286046989.5,N
1509264935.2,286046989.3,N
1509264955.9,286046990.6,N
1509264975.7,286046991.2,N
1509264995.6,286046993.4,N
1509265015.4,286046996.0,N
1509265035.2,286046999.8,N
1509265055.1,286046998.1,N
1509265056.0,286046998.1,N
1509265075.8,286046997.5,N
1509265095.6,286046995.8,N
1509265115.5,286046994.8,N
1509265135.3,286046992.6,N
1509265155.1,286046995.9,N
1509265175.9,286046995.7,N
1509265195.7,286046990.2,N
1509265215.5,286046990.9,N
1509265235.4,286046992.0,N
1509265255.2,286046991.7,N
1509265275.0,286046990.3,N
1509265275.9,286046990.3,N
1509265295.8,286046992.3,N
1509265315.6,286046990.8,N
1509265335.4,286046992.1,N
1509265355.3,286046993.6,N
1509265375.1,286046997.9,N
1509265395.9,286046996.0,N
1509265415.7,286046993.1,N
1509265435.5,286046996.3,N
1509265455.4,286046991.9,N
1509265475.2,286046996.3,N
1509265495.0,286046990.1,Y
1509265495.9,286046990.1,P
1509265515.8,286046990.2,P
1509265535.6,286046991.8,P
1509265555.4,286046997.2,N
1509265575.3,286047002.6,N
1509265595.1,286047005.6,N
1509265615.8,286046999.0,N
1509265635.7,286047000.5,N
1509265655.5,286047004.8,N
1509265675.3,286047001.3,N
1509265695.2,286047005.9,N
1509265715.0,286047006.0,N
1509265715.9,286047006.0,N
1509265735.7,286047005.0,N
1509265755.6,286047006.9,N
1509265775.4,286047003.8,N
1509265795.2,286047007.3,N
1509265815.1,286047007.9,N
1509265816.0,286047007.9,N
1509265835.8,286047017.5,N
1509265855.6,286047011.3,N
1509265875.5,286047007.5,N
1509265895.3,286047009.0,N
1509265915.1,286047006.5,N
1509265935.9,286047006.4,N
1509265955.7,286047009.1,N
1509265975.5,286047003.3,N
1509265995.4,286047003.8,N
1509266015.2,286047003.2,N
1509266035.0,286047007.3,N
1509266036.0,286047007.3,N
1509266055.8,286047009.8,N
1509266075.6,286047008.0,N
1509266095.5,286047004.1,N
1509266115.3,286047006.9,N
1509266135.1,286047005.2,N
1509266155.9,286047007.1,N
1509266175.7,286047011.3,Y
1509266195.5,286047004.9,P
1509266215.4,286047005.6,P
1509266235.2,286047004.9,P
1509266255.0,286047004.8,Y
1509266256.0,286047004.8,P
1509266275.8,286047001.1,P
1509266295.6,286047004.9,N
1509266315.5,286047008.0,Y
1509266335.3,286047002.6,P
1509266355.1,286047007.5,P
1509266375.9,286047008.0,P
1509266395.7,286047005.1,N
1509266415.5,286047004.3,N
1509266435.4,286047000.9,N
1509266455.2,286047000.5,N
1509266475.1,286046996.8,N
1509266476.0,286046996.8,N
1509266495.8,286046993.8,N
1509266515.6,286046993.0,N
1509266535.5,286046994.0,N
1509266555.3,286046993.9,N
1509266575.1,286046993.6,N
1509266595.9,286046993.8,N
1509266615.7,286046995.2,N
1509266635.5,286047003.1,N
1509266655.4,286047007.8,N
1509266675.2,286047000.0,N
1509266695.0,286046997.4,N
1509266695.9,286046997.4,N
1509266715.8,286046996.1,N
1509266735.6,286046995.2,N
1509266755.4,286046990.7,N
1509266775.3,286046990.3,N
1509266795.1,286047001.2,N
1509266796.0,286047001.2,N
1509266815.8,286046999.4,N
1509266835.7,286046993.3,N
1509266855.5,286046997.3,N
1509266875.3,286047000.9,N
1509266895.2,286047003.7,N
1509266915.9,286047004.3,N
1509266935.7,286046999.3,N
1509266955.6,286046996.4,N
1509266975.4,286046995.9,N
1509266995.2,286046996.4,N
1509267015.1,286046993.0,N
1509267016.0,286046993.0,N
1509267035.8,286046991.8,N
1509267055.6,286046999.1,N
1509267075.5,286046997.8,N
1509267095.3,286046996.1,N
1509267115.1,286046996.8,N
1509267135.9,286046994.1,N
1509267155.7,286046995.4,N
1509267175.5,286046993.8,N
1509267195.4,286046990.9,N
1509267215.2,286046990.2,N
1509267235.0,286046991.3,N
1509267235.9,286046991.3,N
1509267255.8,286046992.6,N
1509267275.6,286046990.3,N
1509267295.4,286046990.4,N
1509267315.3,286046987.3,Y
1509267335.1,286046994.5,P
1509267355.8,286046995.0,P
1509267375.7,286046998.3,P
1509267395.5,286046999.5,N
1509267415.4,286046992.5,Y
1509267435.2,286046997.8,P
1509267455.0,286047000.8,N
1509267455.9,286047000.8,N
1509267475.8,286046998.5,N
1509267495.6,286047000.5,N
1509267515.4,286046998.0,N
1509267535.3,286046994.0,Y
1509267555.1,286046991.8,P
1509267575.8,286046995.7,N
1509267595.7,286046995.1,N
